| time (UTC) | temp C | wind direction | speed KPH | gust KPH | rain 1hr cm | rain 24hr cm | rain mn cm | humidity % | barometer mb |
| 20260502151527 | 17 | 287 | 4.8 | 9.7 | 0.00 | 0.00 | 0.00 | 67 | 1021.7 |
| 20260502123017 | 10 | 290 | 0.0 | 0.0 | 0.00 | 0.00 | 0.00 | 94 | 1020.2 |
| 20260502121522 | 10 | 290 | 0.0 | 3.2 | 0.00 | 0.00 | 0.00 | 94 | 1020.0 |
| 20260502114507 | 9 | 257 | 0.0 | 1.6 | 0.00 | 0.00 | 0.00 | 94 | 1019.8 |
| 20260502113019 | 9 | 257 | 0.0 | 0.0 | 0.00 | 0.00 | 0.00 | 94 | 1019.3 |
| 20260502111518 | 9 | 257 | 0.0 | 0.0 | 0.00 | 0.00 | 0.00 | 93 | 1018.8 |
| 20260502110007 | 9 | 257 | 0.0 | 0.0 | 0.00 | 0.00 | 0.00 | 93 | 1018.7 |
| 20260502104506 | 10 | 257 | 0.0 | 0.0 | 0.00 | 0.00 | 0.00 | 93 | 1018.5 |
| 20260502103012 | 10 | 253 | 0.0 | 3.2 | 0.00 | 0.00 | 0.00 | 93 | 1018.5 |
| 20260502101515 | 10 | 266 | 0.0 | 3.2 | 0.00 | 0.00 | 0.00 | 93 | 1018.7 |
| 20260502091512 | 10 | 234 | 0.0 | 0.0 | 0.00 | 0.00 | 0.00 | 93 | 1018.2 |
| 20260502071508 | 12 | 234 | 0.0 | 3.2 | 0.00 | 0.00 | 0.00 | 88 | 1018.5 |
| 20260502070014 | 12 | 273 | 0.0 | 0.0 | 0.00 | 0.00 | 0.00 | 88 | 1018.5 |
| 20260502064535 | 12 | 273 | 0.0 | 0.0 | 0.00 | 0.00 | 0.00 | 87 | 1018.6 |
| 20260502063024 | 12 | 282 | 0.0 | 3.2 | 0.00 | 0.00 | 0.00 | 88 | 1018.6 |
| 20260502061503 | 12 | 250 | 0.0 | 0.0 | 0.00 | 0.00 | 0.00 | 89 | 1018.6 |
| 20260502060020 | 12 | 273 | 0.0 | 3.2 | 0.00 | 0.00 | 0.00 | 90 | 1018.5 |
| 20260502054518 | 12 | 273 | 0.0 | 0.0 | 0.00 | 0.00 | 0.00 | 89 | 1018.3 |
| 20260502053021 | 12 | 242 | 0.0 | 0.0 | 0.00 | 0.00 | 0.00 | 88 | 1018.3 |
| 20260502051534 | 13 | 266 | 0.0 | 0.0 | 0.00 | 0.00 | 0.00 | 88 | 1018.2 |
| 20260502050014 | 13 | 266 | 0.0 | 0.0 | 0.00 | 0.00 | 0.00 | 88 | 1018.3 |
| 20260502044514 | 13 | 266 | 0.0 | 3.2 | 0.00 | 0.00 | 0.00 | 88 | 1018.4 |
| 20260502043019 | 13 | 230 | 0.0 | 0.0 | 0.00 | 0.00 | 0.00 | 88 | 1018.4 |
| 20260502041531 | 13 | 230 | 0.0 | 0.0 | 0.00 | 0.00 | 0.00 | 88 | 1018.3 |
| 20260502040024 | 13 | 230 | 0.0 | 0.0 | 0.00 | 0.00 | 0.00 | 88 | 1018.4 |
| 20260502034511 | 13 | 230 | 0.0 | 0.0 | 0.00 | 0.00 | 0.00 | 86 | 1018.4 |
| 20260502033026 | 13 | 230 | 0.0 | 0.0 | 0.00 | 0.00 | 0.00 | 85 | 1018.3 |
| 20260502031520 | 13 | 230 | 0.0 | 0.0 | 0.00 | 0.00 | 0.00 | 86 | 1018.1 |
| 20260502030023 | 13 | 153 | 0.0 | 0.0 | 0.00 | 0.00 | 0.00 | 86 | 1018.0 |
| 20260502024531 | 13 | 153 | 0.0 | 0.0 | 0.00 | 0.00 | 0.00 | 85 | 1017.8 |
| 20260502023014 | 13 | 153 | 0.0 | 0.0 | 0.00 | 0.00 | 0.00 | 85 | 1017.8 |
| 20260502021518 | 13 | 153 | 0.0 | 3.2 | 0.00 | 0.00 | 0.00 | 84 | 1017.8 |
| 20260502020024 | 13 | 63 | 0.0 | 3.2 | 0.00 | 0.00 | 0.00 | 81 | 1017.5 |
| 20260502014528 | 13 | 24 | 0.0 | 3.2 | 0.00 | 0.00 | 0.00 | 79 | 1017.6 |
| 20260502013013 | 14 | 24 | 0.0 | 3.2 | 0.00 | 0.00 | 0.00 | 79 | 1017.2 |
| 20260502011515 | 15 | 24 | 0.0 | 3.2 | 0.00 | 0.00 | 0.00 | 72 | 1017.1 |
| 20260502010027 | 15 | 46 | 1.6 | 6.4 | 0.00 | 0.00 | 0.00 | 70 | 1016.5 |
| 20260502004530 | 15 | 46 | 1.6 | 9.7 | 0.00 | 0.00 | 0.00 | 71 | 1016.6 |
| 20260502003027 | 15 | 57 | 0.0 | 6.4 | 0.00 | 0.00 | 0.00 | 70 | 1016.4 |
| 20260502001518 | 15 | 64 | 1.6 | 8.0 | 0.00 | 0.00 | 0.00 | 69 | 1016.0 |
| 20260502000022 | 15 | 82 | 3.2 | 6.4 | 0.00 | 0.00 | 0.00 | 70 | 1015.8 |
| 20260501234524 | 15 | 53 | 1.6 | 6.4 | 0.00 | 0.00 | 0.00 | 71 | 1015.7 |
| 20260501233008 | 15 | 92 | 3.2 | 6.4 | 0.00 | 0.00 | 0.00 | 70 | 1015.7 |
| 20260501231511 | 15 | 34 | 3.2 | 6.4 | 0.00 | 0.00 | 0.00 | 68 | 1015.6 |
| 20260501230023 | 15 | 77 | 0.0 | 4.8 | 0.00 | 0.00 | 0.00 | 70 | 1015.5 |
| 20260501224522 | 16 | 86 | 1.6 | 6.4 | 0.00 | 0.00 | 0.00 | 69 | 1015.4 |
| 20260501223026 | 15 | 74 | 1.6 | 6.4 | 0.00 | 0.00 | 0.00 | 68 | 1015.4 |
| 20260501221511 | 15 | 21 | 1.6 | 14.5 | 0.00 | 0.00 | 0.00 | 67 | 1015.3 |
| 20260501220025 | 15 | 42 | 4.8 | 14.5 | 0.00 | 0.00 | 0.00 | 68 | 1015.2 |
| 20260501214525 | 15 | 36 | 6.4 | 17.7 | 0.00 | 0.00 | 0.00 | 66 | 1014.3 |
| 20260501213034 | 15 | 27 | 9.7 | 20.9 | 0.00 | 0.00 | 0.00 | 67 | 1014.6 |
| 20260501211530 | 15 | 68 | 6.4 | 12.9 | 0.00 | 0.00 | 0.00 | 68 | 1015.2 |
| 20260501210012 | 15 | 37 | 6.4 | 17.7 | 0.00 | 0.00 | 0.00 | 67 | 1015.5 |
| 20260501204536 | 15 | 20 | 8.0 | 14.5 | 0.00 | 0.00 | 0.00 | 67 | 1015.4 |
| 20260501203023 | 15 | 53 | 4.8 | 16.1 | 0.00 | 0.00 | 0.00 | 66 | 1015.6 |
| 20260501201528 | 16 | 56 | 4.8 | 19.3 | 0.00 | 0.00 | 0.00 | 64 | 1016.0 |
| 20260501200032 | 16 | 323 | 9.7 | 20.9 | 0.00 | 0.00 | 0.00 | 63 | 1015.4 |
| 20260501194521 | 16 | 38 | 9.7 | 22.5 | 0.00 | 0.00 | 0.00 | 63 | 1015.1 |
| 20260501193030 | 16 | 54 | 9.7 | 24.1 | 0.00 | 0.00 | 0.00 | 65 | 1015.0 |
| 20260501191534 | 16 | 64 | 9.7 | 17.7 | 0.00 | 0.00 | 0.00 | 68 | 1014.9 |
| 20260501190038 | 16 | 46 | 4.8 | 22.5 | 0.00 | 0.00 | 0.00 | 67 | 1015.4 |
| 20260501184534 | 16 | 45 | 11.3 | 24.1 | 0.00 | 0.00 | 0.00 | 70 | 1015.5 |
| 20260501183021 | 16 | 41 | 11.3 | 22.5 | 0.00 | 0.00 | 0.00 | 71 | 1016.0 |
| 20260501181525 | 16 | 204 | 6.4 | 16.1 | 0.00 | 0.00 | 0.00 | 72 | 1016.5 |
| 20260501180027 | 15 | 21 | 8.0 | 17.7 | 0.00 | 0.00 | 0.00 | 71 | 1016.8 |
| 20260501174533 | 15 | 5 | 8.0 | 16.1 | 0.00 | 0.00 | 0.00 | 75 | 1017.0 |
| 20260501173018 | 15 | 74 | 4.8 | 19.3 | 0.00 | 0.00 | 0.00 | 78 | 1016.8 |
| 20260501171546 | 14 | 11 | 8.0 | 17.7 | 0.00 | 0.00 | 0.00 | 79 | 1017.3 |
| 20260501170027 | 13 | 22 | 6.4 | 11.3 | 0.00 | 0.00 | 0.00 | 80 | 1017.5 |
| 20260501164528 | 13 | 11 | 4.8 | 16.1 | 0.00 | 0.00 | 0.00 | 82 | 1017.6 |
| 20260501163026 | 13 | 22 | 4.8 | 11.3 | 0.00 | 0.00 | 0.00 | 82 | 1017.6 |
| 20260501161520 | 12 | 22 | 8.0 | 17.7 | 0.00 | 0.00 | 0.00 | 83 | 1017.5 |
| 20260501160026 | 12 | 21 | 3.2 | 14.5 | 0.00 | 0.00 | 0.00 | 84 | 1017.7 |
| 20260501154539 | 12 | 14 | 6.4 | 14.5 | 0.00 | 0.00 | 0.00 | 82 | 1017.8 |
| 20260501153030 | 12 | 17 | 3.2 | 16.1 | 0.00 | 0.00 | 0.00 | 81 | 1017.9 |